TimeCDT,TemperatureF,Dew PointF,Humidity,Sea Level PressureIn,VisibilityMPH,Wind Direction,Wind SpeedMPH,Gust SpeedMPH,PrecipitationIn,Events,Conditions,WindDirDegrees,DateUTC
12:53 AM,50.0,44.1,80,29.98,10.0,North,4.6,-,N/A,,Clear,350,2012-10-22 05:53:00
1:53 AM,51.1,45.0,80,29.99,10.0,North,10.4,-,N/A,,Clear,360,2012-10-22 06:53:00
2:53 AM,50.0,45.0,83,29.99,10.0,North,8.1,-,N/A,,Clear,10,2012-10-22 07:53:00
3:41 AM,50.0,46.4,87,29.98,10.0,North,11.5,-,N/A,,Mostly Cloudy,10,2012-10-22 08:41:00
3:53 AM,50.0,46.0,86,30.00,10.0,North,12.7,-,N/A,,Overcast,10,2012-10-22 08:53:00
4:53 AM,51.1,46.0,83,30.00,10.0,NNE,9.2,-,N/A,,Overcast,30,2012-10-22 09:53:00
5:53 AM,50.0,45.0,83,30.00,10.0,NNE,12.7,-,N/A,,Overcast,30,2012-10-22 10:53:00
6:04 AM,50.0,44.6,82,29.99,10.0,NNE,13.8,21.9,N/A,,Overcast,30,2012-10-22 11:04:00
6:53 AM,50.0,44.1,80,30.03,10.0,North,10.4,-,N/A,,Overcast,10,2012-10-22 11:53:00
8:53 AM,48.9,42.1,77,30.06,10.0,NE,11.5,-,N/A,,Overcast,40,2012-10-22 13:53:00
9:53 AM,50.0,42.1,74,30.06,10.0,ENE,10.4,-,N/A,,Overcast,60,2012-10-22 14:53:00
10:53 AM,51.1,43.0,74,30.07,10.0,NE,12.7,-,N/A,,Overcast,50,2012-10-22 15:53:00
11:53 AM,52.0,43.0,71,30.06,10.0,ENE,11.5,-,N/A,,Overcast,60,2012-10-22 16:53:00
12:01 PM,51.8,42.8,71,30.04,10.0,NE,11.5,-,N/A,,Overcast,50,2012-10-22 17:01:00
12:53 PM,53.1,43.0,69,30.04,10.0,ENE,6.9,16.1,N/A,,Overcast,60,2012-10-22 17:53:00
1:53 PM,55.0,43.0,64,30.02,10.0,ENE,11.5,20.7,N/A,,Mostly Cloudy,60,2012-10-22 18:53:00
2:53 PM,57.9,44.1,60,30.00,10.0,ENE,10.4,16.1,N/A,,Scattered Clouds,70,2012-10-22 19:53:00
3:01 PM,57.2,44.6,63,29.98,10.0,ENE,16.1,20.7,N/A,,Mostly Cloudy,70,2012-10-22 20:01:00
3:15 PM,57.2,44.6,63,29.98,10.0,ENE,16.1,21.9,N/A,,Scattered Clouds,60,2012-10-22 20:15:00
3:53 PM,55.9,43.0,62,29.99,10.0,ENE,8.1,-,N/A,,Partly Cloudy,60,2012-10-22 20:53:00
4:53 PM,55.0,42.1,62,29.99,10.0,ENE,6.9,17.3,N/A,,Overcast,60,2012-10-22 21:53:00
5:53 PM,53.1,41.0,64,30.00,10.0,East,11.5,-,N/A,,Overcast,80,2012-10-22 22:53:00
6:53 PM,52.0,42.1,69,29.99,10.0,ENE,6.9,18.4,N/A,,Overcast,60,2012-10-22 23:53:00
7:53 PM,51.1,42.1,71,29.99,10.0,ENE,6.9,-,N/A,,Overcast,70,2012-10-23 00:53:00
8:53 PM,51.1,42.1,71,29.99,10.0,ENE,9.2,-,N/A,,Overcast,70,2012-10-23 01:53:00
9:53 PM,50.0,42.1,74,29.97,10.0,ENE,8.1,-,0.00,,Overcast,60,2012-10-23 02:53:00
10:53 PM,50.0,42.1,74,29.97,10.0,ENE,5.8,-,N/A,,Overcast,70,2012-10-23 03:53:00
11:12 PM,50.0,42.8,76,29.94,10.0,ENE,5.8,-,N/A,,Overcast,60,2012-10-23 04:12:00
11:53 PM,50.0,42.1,74,29.94,10.0,East,8.1,17.3,N/A,,Overcast,80,2012-10-23 04:53:00